AFR1045 LFPG-DABB

Flight info

Callsign AFR1045
Flight time 2h 8m
Altitude 35000
Route ERIXU DCT ETAMO DCT ADEKA DCT MOKDI DCT MEN DCT AMLIR DCT FJR DCT DIVKO DCT JUSQO DCT FIRRA DCT NAFOQ DCT SALMA UG6 ANB
Aircraft A320/M-SDE3FGHIRWY/LB1

Departure

Time 2026-05-04 19:01
Airport Charles de Gaulle International Airport (LFPG)

Arrival

Time 2026-05-04 21:09
Airport Annaba Rabah Bitat Airport (DABB)
Time Latitude Longitude Altitude Speed Heading
2026-05-04 18:35 49.01678 2.54048 361 ft 0 kts 147°
2026-05-04 18:48 49.01693 2.54033 364 ft 4 kts 143°
2026-05-04 18:49 49.01714 2.54008 362 ft 4 kts 141°
2026-05-04 18:49 49.01735 2.53988 364 ft 4 kts 180°
2026-05-04 18:49 49.01757 2.53999 358 ft 4 kts 211°
2026-05-04 18:49 49.01769 2.54011 358 ft 4 kts 218°
2026-05-04 18:50 49.01787 2.54038 364 ft 4 kts 232°
2026-05-04 18:50 49.01802 2.54071 364 ft 4 kts 247°
2026-05-04 18:50 49.01810 2.54111 362 ft 4 kts 262°
2026-05-04 18:50 49.01812 2.54151 360 ft 4 kts 268°
2026-05-04 18:51 49.01813 2.54187 360 ft 4 kts 265°
2026-05-04 18:51 49.01815 2.54228 361 ft 4 kts 265°
2026-05-04 18:51 49.01816 2.54252 361 ft 0 kts 265°
2026-05-04 18:53 49.01816 2.54250 361 ft 2 kts 265°
2026-05-04 18:53 49.01814 2.54207 357 ft 7 kts 265°
2026-05-04 18:54 49.01810 2.54140 354 ft 6 kts 265°
2026-05-04 18:54 49.01808 2.54088 354 ft 4 kts 265°
2026-05-04 18:54 49.01806 2.54051 354 ft 3 kts 265°
2026-05-04 18:54 49.01805 2.54028 354 ft 2 kts 265°
2026-05-04 18:55 49.01804 2.54017 354 ft 0 kts 265°
2026-05-04 18:55 49.01803 2.53995 356 ft 8 kts 265°
2026-05-04 18:55 49.01797 2.53889 354 ft 11 kts 265°
2026-05-04 18:56 49.01791 2.53765 360 ft 13 kts 265°
2026-05-04 18:56 49.01782 2.53614 354 ft 15 kts 265°
2026-05-04 18:56 49.01773 2.53442 360 ft 17 kts 265°
2026-05-04 18:56 49.01761 2.53250 355 ft 20 kts 264°
2026-05-04 18:57 49.01772 2.53037 355 ft 21 kts 289°
2026-05-04 18:57 49.01823 2.52825 354 ft 22 kts 276°
2026-05-04 18:57 49.01816 2.52585 359 ft 23 kts 265°
2026-05-04 18:57 49.01816 2.52398 359 ft 16 kts 297°
2026-05-04 18:58 49.01890 2.52284 359 ft 16 kts 282°
2026-05-04 18:58 49.01881 2.52113 354 ft 16 kts 265°
2026-05-04 18:58 49.01871 2.51937 354 ft 17 kts 265°
2026-05-04 18:58 49.01860 2.51750 361 ft 18 kts 265°
2026-05-04 18:59 49.01849 2.51550 354 ft 19 kts 267°
2026-05-04 18:59 49.01934 2.51431 354 ft 19 kts
2026-05-04 18:59 49.02026 2.51565 359 ft 19 kts 55°
2026-05-04 18:59 49.02089 2.51756 351 ft 18 kts 89°
2026-05-04 19:00 49.02090 2.51779 359 ft 0 kts 84°
2026-05-04 19:00 49.02090 2.51780 359 ft 3 kts 84°
2026-05-04 19:00 49.02111 2.52122 353 ft 68 kts 85°
2026-05-04 19:00 49.02167 2.53162 359 ft 126 kts 85°
2026-05-04 19:01 49.02254 2.54728 360 ft 171 kts 83°
2026-05-04 19:01 49.02363 2.56594 870 ft 175 kts 84°
2026-05-04 19:01 49.02459 2.58443 1514 ft 178 kts 84°
2026-05-04 19:01 49.02549 2.60336 2174 ft 179 kts 85°
2026-05-04 19:02 49.02641 2.62244 2866 ft 179 kts 85°
2026-05-04 19:02 49.02741 2.64118 3541 ft 178 kts 85°
2026-05-04 19:02 49.02846 2.66079 3881 ft 195 kts 85°
2026-05-04 19:02 49.02960 2.68239 4099 ft 217 kts 85°
2026-05-04 19:03 49.03085 2.70630 4385 ft 237 kts 85°
2026-05-04 19:03 49.03218 2.73186 4999 ft 244 kts 85°
2026-05-04 19:03 49.03256 2.75775 5698 ft 248 kts 98°
2026-05-04 19:03 49.02617 2.78306 6132 ft 266 kts 127°
2026-05-04 19:04 49.01185 2.80082 6762 ft 274 kts 157°
2026-05-04 19:04 48.99299 2.80549 7487 ft 279 kts 187°
2026-05-04 19:04 48.97480 2.79531 8250 ft 282 kts 211°
2026-05-04 19:04 48.95784 2.78002 9063 ft 285 kts 210°
2026-05-04 19:05 48.94050 2.76478 9858 ft 288 kts 209°
2026-05-04 19:05 48.92294 2.74959 10308 ft 302 kts 209°
2026-05-04 19:05 48.90391 2.73325 10584 ft 321 kts 209°
2026-05-04 19:05 48.88415 2.71630 11182 ft 328 kts 209°
2026-05-04 19:06 48.86413 2.69907 11858 ft 332 kts 209°
2026-05-04 19:06 48.84391 2.68163 12544 ft 336 kts 209°
2026-05-04 19:06 48.82364 2.66418 13216 ft 340 kts 209°
2026-05-04 19:06 48.80297 2.64637 13872 ft 344 kts 209°
2026-05-04 19:07 48.78188 2.62815 14498 ft 346 kts 209°
2026-05-04 19:07 48.76098 2.61011 15129 ft 349 kts 209°
2026-05-04 19:07 48.73978 2.59182 15736 ft 351 kts 209°
2026-05-04 19:07 48.71835 2.57335 16345 ft 354 kts 209°
2026-05-04 19:08 48.69711 2.55508 16947 ft 357 kts 210°
2026-05-04 19:08 48.67496 2.53603 17561 ft 359 kts 210°
2026-05-04 19:08 48.65345 2.51757 18133 ft 362 kts 210°
2026-05-04 19:08 48.63141 2.49870 18671 ft 365 kts 210°
2026-05-04 19:09 48.60944 2.47995 18875 ft 366 kts 210°
2026-05-04 19:09 48.58729 2.46106 18940 ft 365 kts 210°
2026-05-04 19:09 48.56518 2.44218 18944 ft 365 kts 210°
2026-05-04 19:09 48.54306 2.42331 18944 ft 364 kts 209°
2026-05-04 19:10 48.51973 2.40900 19121 ft 367 kts 194°
2026-05-04 19:10 48.49472 2.40043 19667 ft 369 kts 193°
2026-05-04 19:10 48.46959 2.39175 20217 ft 371 kts 193°
2026-05-04 19:10 48.44441 2.38301 20752 ft 373 kts 193°
2026-05-04 19:11 48.41901 2.37421 21280 ft 375 kts 193°
2026-05-04 19:11 48.39359 2.36541 21850 ft 376 kts 193°
2026-05-04 19:11 48.36827 2.35668 22912 ft 360 kts 193°
2026-05-04 19:11 48.34472 2.34862 24090 ft 340 kts 193°
2026-05-04 19:12 48.32224 2.34097 25117 ft 322 kts 193°
2026-05-04 19:12 48.27843 2.32606 25864 ft 330 kts 193°
2026-05-04 19:12 48.25573 2.31829 25928 ft 342 kts 193°
2026-05-04 19:13 48.23200 2.31018 25935 ft 357 kts 193°
2026-05-04 19:13 48.20733 2.30175 25937 ft 371 kts 193°
2026-05-04 19:13 48.18187 2.29322 25936 ft 383 kts 191°
2026-05-04 19:13 48.15481 2.29171 26004 ft 395 kts 174°
2026-05-04 19:14 48.12739 2.29814 26133 ft 403 kts 172°
2026-05-04 19:14 48.09946 2.30507 26258 ft 410 kts 172°
2026-05-04 19:14 48.07103 2.31219 26390 ft 417 kts 172°
2026-05-04 19:14 48.04212 2.31945 26520 ft 423 kts 172°
2026-05-04 19:15 48.01311 2.32677 26725 ft 426 kts 172°
2026-05-04 19:15 47.98372 2.33421 26986 ft 428 kts 172°
2026-05-04 19:15 47.95432 2.34166 27270 ft 429 kts 172°
2026-05-04 19:15 47.92520 2.34903 27538 ft 430 kts 172°
2026-05-04 19:16 47.89533 2.35656 27801 ft 432 kts 172°
2026-05-04 19:16 47.86597 2.36392 28049 ft 433 kts 172°
2026-05-04 19:16 47.83610 2.37135 28290 ft 434 kts 172°
2026-05-04 19:16 47.80640 2.37871 28514 ft 435 kts 172°
2026-05-04 19:17 47.77653 2.38610 28757 ft 435 kts 172°
2026-05-04 19:17 47.74669 2.39352 29101 ft 433 kts 172°
2026-05-04 19:17 47.71691 2.40095 29435 ft 432 kts 172°
2026-05-04 19:17 47.68740 2.40830 29777 ft 430 kts 172°
2026-05-04 19:18 47.65788 2.41561 30084 ft 429 kts 172°
2026-05-04 19:18 47.62823 2.42292 30374 ft 428 kts 172°
2026-05-04 19:18 47.59930 2.43005 30652 ft 426 kts 172°
2026-05-04 19:18 47.56990 2.43727 30943 ft 424 kts 173°
2026-05-04 19:19 47.54107 2.44432 31239 ft 422 kts 173°
2026-05-04 19:19 47.51214 2.45142 31539 ft 420 kts 173°
2026-05-04 19:19 47.48333 2.45853 31841 ft 419 kts 173°
2026-05-04 19:19 47.45462 2.46564 32140 ft 417 kts 173°
2026-05-04 19:20 47.42613 2.47269 32427 ft 415 kts 173°
2026-05-04 19:20 47.39773 2.47968 32820 ft 409 kts 174°
2026-05-04 19:20 47.37037 2.48643 33939 ft 388 kts 174°
2026-05-04 19:20 47.34408 2.49293 34562 ft 379 kts 175°
2026-05-04 19:21 47.31845 2.49915 34812 ft 379 kts 175°
2026-05-04 19:21 47.26550 2.51185 34918 ft 389 kts 174°
2026-05-04 19:22 47.21134 2.52495 34918 ft 400 kts 174°
2026-05-04 19:22 47.15601 2.53840 34919 ft 410 kts 174°
2026-05-04 19:23 47.09939 2.55219 34921 ft 414 kts 174°
2026-05-04 19:23 47.04261 2.56597 34920 ft 414 kts 174°
2026-05-04 19:24 46.98571 2.57967 34920 ft 414 kts 174°
2026-05-04 19:24 46.92884 2.59344 34912 ft 414 kts 174°
2026-05-04 19:25 46.87207 2.60706 34910 ft 414 kts 174°
2026-05-04 19:25 46.81521 2.62061 34910 ft 413 kts 174°
2026-05-04 19:26 46.75842 2.63419 34906 ft 413 kts 174°
2026-05-04 19:26 46.70201 2.64760 34907 ft 413 kts 174°
2026-05-04 19:27 46.64522 2.66116 34907 ft 414 kts 174°
2026-05-04 19:27 46.58811 2.67484 34905 ft 414 kts 174°
2026-05-04 19:28 46.53169 2.68826 34905 ft 413 kts 174°
2026-05-04 19:28 46.47488 2.70162 34904 ft 413 kts 174°
2026-05-04 19:29 46.41808 2.71508 34904 ft 414 kts 174°
2026-05-04 19:29 46.36122 2.72850 34908 ft 414 kts 174°
2026-05-04 19:30 46.30435 2.74188 34908 ft 414 kts 174°
2026-05-04 19:30 46.24757 2.75517 34916 ft 414 kts 174°
2026-05-04 19:31 46.20026 2.76625 34921 ft 414 kts 174°
2026-05-04 19:31 46.14325 2.77961 35019 ft 412 kts 174°
2026-05-04 19:31 46.11575 2.78608 35898 ft 393 kts 174°
2026-05-04 19:32 46.08885 2.79242 36279 ft 390 kts 174°
2026-05-04 19:32 46.06204 2.79872 36536 ft 388 kts 174°
2026-05-04 19:32 46.03557 2.80490 36792 ft 386 kts 174°
2026-05-04 19:32 46.00900 2.81106 36907 ft 388 kts 174°
2026-05-04 19:33 45.98224 2.81722 36935 ft 392 kts 174°
2026-05-04 19:33 45.92779 2.82968 36934 ft 400 kts 174°
2026-05-04 19:34 45.87251 2.84247 36942 ft 409 kts 174°
2026-05-04 19:34 45.81573 2.85564 36946 ft 416 kts 174°
2026-05-04 19:35 45.75808 2.86895 36942 ft 422 kts 174°
2026-05-04 19:35 45.69999 2.88235 36943 ft 423 kts 174°
2026-05-04 19:36 45.64204 2.89572 36946 ft 422 kts 174°
2026-05-04 19:36 45.58415 2.90894 36946 ft 423 kts 174°
2026-05-04 19:37 45.52571 2.92234 36945 ft 423 kts 174°
2026-05-04 19:37 45.46811 2.93646 36958 ft 425 kts 167°
2026-05-04 19:38 45.41229 2.96665 36966 ft 428 kts 162°
2026-05-04 19:38 45.35704 2.99799 36965 ft 428 kts 162°
2026-05-04 19:39 45.30176 3.02951 36972 ft 428 kts 162°
2026-05-04 19:39 45.24674 3.06076 36972 ft 427 kts 162°
2026-05-04 19:40 45.19147 3.09190 36952 ft 428 kts 163°
2026-05-04 19:40 45.13613 3.12306 36951 ft 428 kts 163°
2026-05-04 19:41 45.08076 3.15423 36964 ft 428 kts 163°
2026-05-04 19:41 45.02508 3.18546 36967 ft 429 kts 163°
2026-05-04 19:42 44.96984 3.21634 36980 ft 428 kts 163°
2026-05-04 19:42 44.91435 3.24724 36974 ft 428 kts 163°
2026-05-04 19:43 44.85898 3.27813 36978 ft 428 kts 163°
2026-05-04 19:43 44.80384 3.30881 36979 ft 428 kts 163°
2026-05-04 19:44 44.74838 3.33959 36979 ft 428 kts 163°
2026-05-04 19:44 44.69292 3.37033 36984 ft 428 kts 163°
2026-05-04 19:45 44.63750 3.40098 36986 ft 428 kts 163°
2026-05-04 19:45 44.58210 3.43160 36989 ft 428 kts 163°
2026-05-04 19:46 44.52659 3.46218 36978 ft 428 kts 163°
2026-05-04 19:46 44.47146 3.49254 36978 ft 428 kts 162°
2026-05-04 19:47 44.41585 3.52298 36991 ft 428 kts 163°
2026-05-04 19:47 44.36065 3.55315 36981 ft 428 kts 163°
2026-05-04 19:48 44.30480 3.58363 36985 ft 428 kts 163°
2026-05-04 19:48 44.24962 3.61374 36990 ft 428 kts 163°
2026-05-04 19:49 44.19505 3.64343 36992 ft 428 kts 163°
2026-05-04 19:49 44.13947 3.67354 36981 ft 428 kts 163°
2026-05-04 19:50 44.08689 3.70198 36981 ft 429 kts 163°
2026-05-04 19:50 44.03126 3.73208 36991 ft 429 kts 163°
2026-05-04 19:51 43.97562 3.76214 36990 ft 429 kts 163°
2026-05-04 19:51 43.92017 3.79201 36974 ft 429 kts 163°
2026-05-04 19:52 43.86461 3.82186 36951 ft 428 kts 164°
2026-05-04 19:52 43.80899 3.85167 36954 ft 428 kts 164°
2026-05-04 19:53 43.75334 3.88138 36960 ft 429 kts 164°
2026-05-04 19:53 43.69762 3.91123 36974 ft 429 kts 164°
2026-05-04 19:54 43.64198 3.94096 36969 ft 429 kts 164°
2026-05-04 19:54 43.58740 3.97493 36949 ft 437 kts 153°
2026-05-04 19:54 43.56298 4.00052 36950 ft 444 kts 142°
2026-05-04 19:55 43.54187 4.03135 36928 ft 450 kts 137°
2026-05-04 19:55 43.50047 4.09609 36931 ft 450 kts 137°
2026-05-04 19:56 43.45875 4.16064 36934 ft 451 kts 137°
2026-05-04 19:56 43.41698 4.22507 36915 ft 451 kts 138°
2026-05-04 19:57 43.37508 4.28960 36926 ft 452 kts 138°
2026-05-04 19:57 43.33320 4.35397 36924 ft 452 kts 138°
2026-05-04 19:58 43.29155 4.41805 36931 ft 453 kts 138°
2026-05-04 19:58 43.24955 4.48256 36951 ft 453 kts 138°
2026-05-04 19:59 43.20741 4.54683 36957 ft 453 kts 138°
2026-05-04 19:59 43.16524 4.61105 36940 ft 453 kts 138°
2026-05-04 20:00 43.12301 4.67544 36927 ft 454 kts 138°
2026-05-04 20:00 43.08029 4.73899 36942 ft 450 kts 143°
2026-05-04 20:01 43.02977 4.78645 36949 ft 435 kts 161°
2026-05-04 20:01 42.97341 4.81386 36951 ft 429 kts 168°
2026-05-04 20:02 42.91688 4.83900 36946 ft 430 kts 168°
2026-05-04 20:02 42.85997 4.86427 36948 ft 430 kts 168°
2026-05-04 20:03 42.80303 4.88948 36960 ft 430 kts 168°
2026-05-04 20:03 42.74608 4.91474 36960 ft 430 kts 168°
2026-05-04 20:04 42.68868 4.93710 36968 ft 427 kts 172°
2026-05-04 20:04 42.63112 4.95453 36934 ft 426 kts 174°
2026-05-04 20:05 42.57320 4.97142 36947 ft 426 kts 173°
2026-05-04 20:05 42.51538 4.98935 36954 ft 426 kts 173°
2026-05-04 20:06 42.45757 5.00774 36931 ft 426 kts 173°
2026-05-04 20:06 42.39985 5.02616 36940 ft 427 kts 173°
2026-05-04 20:07 42.34202 5.04445 36950 ft 427 kts 173°
2026-05-04 20:07 42.28420 5.06255 36943 ft 427 kts 173°
2026-05-04 20:08 42.22665 5.08052 36951 ft 427 kts 173°
2026-05-04 20:08 42.16837 5.09872 36951 ft 427 kts 173°
2026-05-04 20:09 42.11082 5.11671 36958 ft 427 kts 173°
2026-05-04 20:09 42.05282 5.13480 36943 ft 428 kts 173°
2026-05-04 20:10 41.99482 5.15287 36954 ft 428 kts 173°
2026-05-04 20:10 41.93678 5.17089 36962 ft 428 kts 173°
2026-05-04 20:11 41.87869 5.18875 36965 ft 428 kts 173°
2026-05-04 20:11 41.82067 5.20677 36956 ft 428 kts 173°
2026-05-04 20:12 41.76269 5.22462 36959 ft 428 kts 173°
2026-05-04 20:12 41.70467 5.24249 36967 ft 428 kts 173°
2026-05-04 20:13 41.64703 5.26070 36931 ft 431 kts 170°
2026-05-04 20:13 41.59008 5.28760 36942 ft 435 kts 167°
2026-05-04 20:14 41.53311 5.31500 36949 ft 435 kts 167°
2026-05-04 20:14 41.47642 5.34233 36943 ft 436 kts 167°
2026-05-04 20:15 41.41908 5.36981 36929 ft 436 kts 167°
2026-05-04 20:15 41.36187 5.39719 36948 ft 437 kts 167°
2026-05-04 20:16 41.30461 5.42455 36968 ft 437 kts 167°
2026-05-04 20:16 41.24730 5.45191 36969 ft 437 kts 167°
2026-05-04 20:17 41.19005 5.47918 36948 ft 438 kts 168°
2026-05-04 20:17 41.14235 5.50191 36955 ft 438 kts 168°
2026-05-04 20:18 41.08500 5.52918 36961 ft 438 kts 168°
2026-05-04 20:18 41.02758 5.55644 36973 ft 438 kts 168°
2026-05-04 20:19 40.97013 5.58358 36957 ft 438 kts 168°
2026-05-04 20:19 40.91267 5.61071 36968 ft 438 kts 168°
2026-05-04 20:20 40.85542 5.63771 36983 ft 438 kts 168°
2026-05-04 20:20 40.79789 5.66477 36985 ft 438 kts 168°
2026-05-04 20:21 40.74045 5.69176 36968 ft 438 kts 169°
2026-05-04 20:21 40.65452 5.73200 36955 ft 439 kts 168°
2026-05-04 20:22 40.59658 5.75910 36962 ft 439 kts 168°
2026-05-04 20:22 40.53925 5.78591 36973 ft 440 kts 168°
2026-05-04 20:23 40.48129 5.81294 36972 ft 440 kts 168°
2026-05-04 20:23 40.42445 5.84242 36974 ft 446 kts 162°
2026-05-04 20:24 40.36850 5.87756 36989 ft 446 kts 162°
2026-05-04 20:24 40.31241 5.91253 36991 ft 447 kts 162°
2026-05-04 20:25 40.25628 5.94764 36992 ft 447 kts 162°
2026-05-04 20:25 40.20006 5.98274 36999 ft 447 kts 162°
2026-05-04 20:26 40.14378 6.01783 37003 ft 448 kts 162°
2026-05-04 20:26 40.08759 6.05285 36984 ft 448 kts 162°
2026-05-04 20:27 40.03161 6.08758 36993 ft 448 kts 163°
2026-05-04 20:27 39.97519 6.12251 36982 ft 450 kts 162°
2026-05-04 20:28 39.91861 6.15759 36994 ft 450 kts 162°
2026-05-04 20:28 39.86180 6.19259 36992 ft 451 kts 162°
2026-05-04 20:29 39.80499 6.22748 36999 ft 452 kts 162°
2026-05-04 20:29 39.74804 6.26247 37010 ft 453 kts 162°
2026-05-04 20:30 39.69101 6.29748 37016 ft 453 kts 162°
2026-05-04 20:30 39.63394 6.33254 37026 ft 454 kts 162°
2026-05-04 20:31 39.57677 6.36746 37015 ft 455 kts 162°
2026-05-04 20:31 39.51969 6.40220 37024 ft 456 kts 162°
2026-05-04 20:32 39.46187 6.43745 37034 ft 457 kts 162°
2026-05-04 20:32 39.40468 6.47225 37019 ft 457 kts 162°
2026-05-04 20:33 39.34700 6.50727 37009 ft 458 kts 162°
2026-05-04 20:33 39.28919 6.54226 37030 ft 459 kts 162°
2026-05-04 20:34 39.23123 6.57734 37029 ft 460 kts 162°
2026-05-04 20:34 39.17327 6.61241 37034 ft 460 kts 162°
2026-05-04 20:35 39.11526 6.64743 37023 ft 461 kts 162°
2026-05-04 20:35 39.05716 6.68232 37027 ft 461 kts 162°
2026-05-04 20:36 38.99894 6.71697 37039 ft 461 kts 163°
2026-05-04 20:36 38.94035 6.74891 37045 ft 459 kts 165°
2026-05-04 20:37 38.88099 6.77927 37034 ft 459 kts 165°
2026-05-04 20:37 38.82149 6.80956 37044 ft 460 kts 165°
2026-05-04 20:38 38.76213 6.84029 37049 ft 461 kts 165°
2026-05-04 20:38 38.70252 6.87140 37036 ft 461 kts 164°
2026-05-04 20:39 38.64313 6.90218 37035 ft 462 kts 165°
2026-05-04 20:39 38.58353 6.93301 37045 ft 462 kts 165°
2026-05-04 20:40 38.52432 6.96364 37054 ft 462 kts 165°
2026-05-04 20:40 38.46471 6.99434 37061 ft 462 kts 165°
2026-05-04 20:41 38.40511 7.02492 37045 ft 462 kts 165°
2026-05-04 20:41 38.34548 7.05555 37053 ft 462 kts 165°
2026-05-04 20:42 38.28569 7.08615 37058 ft 461 kts 165°
2026-05-04 20:42 38.22620 7.11654 37058 ft 461 kts 165°
2026-05-04 20:43 38.16678 7.14699 37059 ft 461 kts 165°
2026-05-04 20:43 38.10763 7.17712 37040 ft 453 kts 165°
2026-05-04 20:44 38.07875 7.19195 37043 ft 442 kts 165°
2026-05-04 20:44 38.05031 7.20648 37046 ft 439 kts 166°
2026-05-04 20:44 37.99362 7.23525 37046 ft 438 kts 166°
2026-05-04 20:45 37.93682 7.26394 36589 ft 443 kts 166°
2026-05-04 20:45 37.90811 7.27837 35388 ft 447 kts 166°
2026-05-04 20:45 37.87942 7.29281 34250 ft 449 kts 166°
2026-05-04 20:46 37.85021 7.30756 32998 ft 450 kts 166°
2026-05-04 20:46 37.82135 7.32219 31767 ft 449 kts 165°
2026-05-04 20:46 37.79243 7.33684 30601 ft 447 kts 164°
2026-05-04 20:46 37.76333 7.35157 29342 ft 444 kts 164°
2026-05-04 20:47 37.73493 7.36596 28080 ft 441 kts 164°
2026-05-04 20:47 37.70666 7.38025 26862 ft 438 kts 163°
2026-05-04 20:47 37.67829 7.39454 25710 ft 434 kts 163°
2026-05-04 20:47 37.65053 7.40850 24627 ft 430 kts 163°
2026-05-04 20:48 37.62270 7.42246 23568 ft 425 kts 163°
2026-05-04 20:48 37.59554 7.43608 22388 ft 421 kts 163°
2026-05-04 20:48 37.56848 7.44965 21241 ft 418 kts 163°
2026-05-04 20:48 37.54153 7.46316 20113 ft 413 kts 163°
2026-05-04 20:49 37.51457 7.47662 18719 ft 419 kts 163°
2026-05-04 20:49 37.48767 7.49003 18262 ft 410 kts 163°
2026-05-04 20:49 37.46165 7.50306 18050 ft 397 kts 163°
2026-05-04 20:49 37.43632 7.51575 17572 ft 392 kts 163°
2026-05-04 20:50 37.41105 7.52837 17085 ft 388 kts 163°
2026-05-04 20:50 37.38600 7.54083 16585 ft 385 kts 163°
2026-05-04 20:50 37.36120 7.55313 16095 ft 382 kts 163°
2026-05-04 20:50 37.33652 7.56536 15584 ft 380 kts 163°
2026-05-04 20:51 37.31185 7.57761 15071 ft 378 kts 163°
2026-05-04 20:51 37.28754 7.58970 14536 ft 377 kts 162°
2026-05-04 20:51 37.26305 7.60190 14003 ft 377 kts 162°
2026-05-04 20:51 37.23869 7.61404 13409 ft 376 kts 162°
2026-05-04 20:52 37.21470 7.62600 12822 ft 374 kts 162°
2026-05-04 20:52 37.19034 7.63812 12261 ft 372 kts 162°
2026-05-04 20:52 37.16654 7.64992 11677 ft 370 kts 162°
2026-05-04 20:52 37.14258 7.66177 11095 ft 367 kts 162°
2026-05-04 20:53 37.11918 7.67338 10666 ft 361 kts 162°
2026-05-04 20:53 37.09596 7.68487 10220 ft 355 kts 162°
2026-05-04 20:53 37.07294 7.69623 9746 ft 350 kts 162°
2026-05-04 20:53 37.05082 7.70718 9448 ft 340 kts 162°
2026-05-04 20:54 37.02935 7.71784 9320 ft 325 kts 162°
2026-05-04 20:54 37.00876 7.72805 9197 ft 311 kts 162°
2026-05-04 20:54 36.98888 7.73790 9067 ft 299 kts 162°
2026-05-04 20:54 36.96998 7.74723 8940 ft 289 kts 162°
2026-05-04 20:55 36.95174 7.75618 8816 ft 279 kts 162°
2026-05-04 20:55 36.93375 7.76501 8533 ft 274 kts 162°
2026-05-04 20:55 36.91592 7.77372 8069 ft 276 kts 162°
2026-05-04 20:55 36.89801 7.78227 7610 ft 277 kts 162°
2026-05-04 20:56 36.88002 7.79070 7154 ft 279 kts 162°
2026-05-04 20:56 36.86158 7.79807 6701 ft 278 kts 173°
2026-05-04 20:56 36.84233 7.79779 6242 ft 274 kts 187°
2026-05-04 20:56 36.82396 7.79504 5771 ft 260 kts 187°
2026-05-04 20:57 36.80646 7.79200 5301 ft 247 kts 188°
2026-05-04 20:57 36.78978 7.79141 4842 ft 238 kts 166°
2026-05-04 20:57 36.77548 7.80074 4370 ft 235 kts 134°
2026-05-04 20:57 36.76742 7.81812 3900 ft 234 kts 102°
2026-05-04 20:58 36.76821 7.83817 3434 ft 232 kts 70°
2026-05-04 20:58 36.77752 7.85419 2960 ft 233 kts 39°
2026-05-04 20:58 36.79237 7.86170 2526 ft 236 kts 13°
2026-05-04 20:58 36.80879 7.86392 2428 ft 238 kts
2026-05-04 20:59 36.82533 7.86530 2435 ft 242 kts
2026-05-04 20:59 36.84216 7.86431 2434 ft 242 kts 358°
2026-05-04 20:59 36.85880 7.86047 2440 ft 244 kts 351°
2026-05-04 20:59 36.87552 7.85557 2437 ft 243 kts 350°
2026-05-04 21:00 36.89171 7.85075 2435 ft 239 kts 350°
2026-05-04 21:00 36.90768 7.84599 2435 ft 235 kts 351°
2026-05-04 21:00 36.92379 7.84279 2429 ft 230 kts
2026-05-04 21:00 36.93847 7.84882 2432 ft 221 kts 40°
2026-05-04 21:01 36.94918 7.86241 2436 ft 219 kts 53°
2026-05-04 21:01 36.95844 7.87725 2430 ft 218 kts 54°
2026-05-04 21:01 36.96792 7.89230 2429 ft 218 kts 53°
2026-05-04 21:01 36.97751 7.90698 2429 ft 218 kts 53°
2026-05-04 21:02 36.98717 7.92135 2428 ft 218 kts 53°
2026-05-04 21:02 36.99696 7.93582 2431 ft 218 kts 53°
2026-05-04 21:02 37.00827 7.94856 2422 ft 223 kts 32°
2026-05-04 21:02 37.02351 7.95329 2421 ft 233 kts
2026-05-04 21:03 37.03893 7.94725 2421 ft 241 kts 328°
2026-05-04 21:03 37.04968 7.93118 2421 ft 247 kts 295°
2026-05-04 21:03 37.05422 7.91064 2410 ft 234 kts 275°
2026-05-04 21:03 37.05359 7.89112 2414 ft 221 kts 256°
2026-05-04 21:04 37.05078 7.87894 2416 ft 218 kts 245°
2026-05-04 21:04 37.04038 7.85817 2442 ft 200 kts 222°
2026-05-04 21:04 37.03388 7.85066 2434 ft 180 kts 212°
2026-05-04 21:04 37.02391 7.84298 2412 ft 161 kts 198°
2026-05-04 21:05 37.01029 7.83776 2420 ft 150 kts 181°
2026-05-04 21:05 37.00333 7.83669 2423 ft 149 kts 180°
2026-05-04 21:05 36.99316 7.83515 2426 ft 148 kts 179°
2026-05-04 21:05 36.98289 7.83360 2428 ft 148 kts 179°
2026-05-04 21:06 36.97276 7.83206 2440 ft 148 kts 180°
2026-05-04 21:06 36.96256 7.83052 2303 ft 147 kts 181°
2026-05-04 21:06 36.95243 7.82899 2126 ft 146 kts 181°
2026-05-04 21:06 36.94229 7.82746 1947 ft 147 kts 180°
2026-05-04 21:07 36.93229 7.82595 1752 ft 145 kts 181°
2026-05-04 21:07 36.92230 7.82444 1568 ft 145 kts 182°
2026-05-04 21:07 36.91218 7.82291 1374 ft 144 kts 184°
2026-05-04 21:07 36.90230 7.82142 1191 ft 143 kts 185°
2026-05-04 21:08 36.89244 7.81993 1000 ft 144 kts 186°
2026-05-04 21:08 36.88243 7.81842 808 ft 143 kts 186°
2026-05-04 21:08 36.87253 7.81693 607 ft 144 kts 187°
2026-05-04 21:08 36.86253 7.81542 405 ft 146 kts 187°
2026-05-04 21:09 36.85262 7.81393 212 ft 145 kts 187°
2026-05-04 21:09 36.84250 7.81238 37 ft 145 kts 187°
2026-05-04 21:09 36.83338 7.81091 14 ft 113 kts 188°
2026-05-04 21:09 36.82860 7.81023 19 ft 25 kts 187°
2026-05-04 21:10 36.82747 7.81006 19 ft 20 kts 187°
2026-05-04 21:10 36.82574 7.80982 17 ft 29 kts 186°
2026-05-04 21:10 36.82371 7.80953 16 ft 31 kts 188°
2026-05-04 21:10 36.82344 7.80951 15 ft 0 kts 170°
2026-05-04 21:11 36.82343 7.80951 15 ft 0 kts 169°